Weather History for Louisville, KY

Change the Weather History Date:

Saturday, February 8, 2014

  Actual Average Record
Temperature  
Mean Temperature 24 °F 37 °F  
Max Temperature 29 °F 46 °F 73 °F (1937)
Min Temperature 18 °F 28 °F -10 °F (1895)
Degree Days  
Heating Degree Days 41 28  
Month to date heating degree days 278 228  
Since 1 July heating degree days 3038 2737  
Cooling Degree Days 0 0  
Month to date cooling degree days 0 0  
Year to date cooling degree days 0 0  
Moisture  
Dew Point 19 °F    
Average Humidity 78    
Maximum Humidity 88    
Minimum Humidity 67    
Precipitation  
Precipitation 0.03 in 0.11 in 1.84 in (1950)
Month to date precipitation 2.53 0.92  
Year to date precipitation 4.94 4.16  
Snow  
Snow 0.30 in 0.20 in 7.50 in (1971)
Month to date snowfall 5.9 1.5  
Since 1 July snowfall 20.0 8.0  
Snow Depth 3.00 in    
Sea Level Pressure  
Sea Level Pressure 30.27 in    
Wind  
Wind Speed 3 mph (East)    
Max Wind Speed 8 mph    
Max Gust Speed 10 mph    
Visibility 6 miles    
Events Snow    
T = Trace of Precipitation, MM = Missing Value Source: NWS Daily Summary

Daily Weather History Graph

Daily Weather History Graph

Search for Another Location

Airport:

Trip Planner

Search our weather history database for the weather conditions in past years. The results will help you decide how hot, cold, wet, or windy it might be!

Date:

Astronomy

Feb. 08, 2014 Rise Set
Actual Time 7:41 AM EST 6:13 PM EST
Civil Twilight 7:13 AM EST 6:41 PM EST
Nautical Twilight 6:42 AM EST 7:12 PM EST
Astronomical Twilight 6:11 AM EST 7:43 PM EST
Moon 1:08 PM EST (2/8) 2:51 AM EST (2/8)
Length of Visible Light 11h 27m
Length of Day
10h 32m
Waxing Gibbous, 68% of the Moon is Illuminated
Feb 8
Waxing Gibbous
Feb 14
Full
Feb 22
Last Quarter
Mar 1
New
Mar 8
First Quarter

Hourly Weather History & Observations

Time (EST) Temp. Windchill Dew Point Humidity Pressure Visibility Wind Dir Wind Speed Gust Speed Precip Events Conditions
12:56 AM 19.0 °F 13.9 °F 12.0 °F 74% 30.38 in 10.0 mi East 3.5 mph - N/A   Overcast
1:56 AM 19.0 °F - 12.9 °F 77% 30.37 in 10.0 mi Calm Calm - N/A   Overcast
2:56 AM 19.0 °F 13.9 °F 12.9 °F 77% 30.37 in 10.0 mi ENE 3.5 mph - N/A   Overcast
3:56 AM 19.9 °F 14.9 °F 12.9 °F 74% 30.36 in 10.0 mi NE 3.5 mph - N/A   Overcast
4:56 AM 19.9 °F 13.4 °F 14.0 °F 78% 30.34 in 10.0 mi NE 4.6 mph - N/A   Overcast
5:56 AM 19.9 °F 13.4 °F 14.0 °F 78% 30.33 in 10.0 mi ENE 4.6 mph - N/A   Overcast
6:56 AM 19.9 °F 12.1 °F 14.0 °F 78% 30.31 in 10.0 mi ENE 5.8 mph - N/A   Overcast
7:56 AM 19.9 °F 12.1 °F 14.0 °F 78% 30.31 in 10.0 mi East 5.8 mph - N/A   Overcast
8:56 AM 19.9 °F 14.9 °F 14.0 °F 78% 30.33 in 10.0 mi East 3.5 mph - N/A   Overcast
9:42 AM 21.2 °F - 15.8 °F 80% 30.32 in 2.5 mi Calm Calm - 0.00 in Snow Light Snow
9:50 AM 21.2 °F - 15.8 °F 80% 30.32 in 1.8 mi Calm Calm - 0.00 in Snow Light Snow
9:56 AM 21.0 °F - 15.1 °F 78% 30.34 in 1.0 mi Calm Calm - 0.00 in Snow Light Snow
10:56 AM 21.9 °F 17.2 °F 18.0 °F 85% 30.33 in 0.8 mi NE 3.5 mph - 0.01 in Snow Light Snow
11:05 AM 21.2 °F 16.4 °F 17.6 °F 86% 30.31 in 1.0 mi ENE 3.5 mph - 0.01 in Snow Light Snow
11:21 AM 23.0 °F 18.4 °F 17.6 °F 80% 30.31 in 2.0 mi NE 3.5 mph - 0.01 in Snow Light Snow
11:34 AM 23.0 °F 18.4 °F 19.4 °F 86% 30.30 in 1.5 mi NE 3.5 mph - 0.01 in Snow Light Snow
11:44 AM 23.0 °F 18.4 °F 17.6 °F 80% 30.30 in 1.0 mi NNE 3.5 mph - 0.01 in Snow Light Snow
11:56 AM 23.0 °F 18.4 °F 19.0 °F 85% 30.32 in 1.0 mi ENE 3.5 mph - 0.02 in Snow Light Snow
12:13 PM 24.8 °F 19.1 °F 19.4 °F 80% 30.29 in 0.8 mi NNE 4.6 mph - 0.00 in Snow Light Snow
12:22 PM 26.6 °F - 19.4 °F 74% 30.29 in 1.5 mi Calm Calm - 0.00 in Snow Light Snow
12:27 PM 26.6 °F 22.6 °F 19.4 °F 74% 30.28 in 3.0 mi NNE 3.5 mph - 0.00 in Snow Light Snow
12:52 PM 26.6 °F 22.6 °F 19.4 °F 74% 30.26 in 5.0 mi NE 3.5 mph - 0.00 in Snow Light Snow
12:56 PM 26.1 °F 21.9 °F 19.9 °F 78% 30.28 in 6.0 mi East 3.5 mph - 0.00 in Snow Light Snow
1:56 PM 27.0 °F - 21.9 °F 81% 30.24 in 9.0 mi Calm Calm - 0.00 in   Overcast
2:56 PM 28.0 °F 21.7 °F 23.0 °F 81% 30.21 in 8.0 mi SSE 5.8 mph - N/A   Overcast
3:56 PM 28.0 °F 22.8 °F 23.0 °F 81% 30.20 in 8.0 mi SE 4.6 mph - N/A   Overcast
4:56 PM 28.9 °F 21.1 °F 24.1 °F 82% 30.18 in 7.0 mi SSE 8.1 mph - N/A   Overcast
5:56 PM 28.9 °F 25.2 °F 24.1 °F 82% 30.21 in 6.0 mi SW 3.5 mph - N/A   Haze
6:56 PM 28.9 °F 25.2 °F 24.1 °F 82% 30.21 in 7.0 mi South 3.5 mph - N/A   Overcast
7:43 PM 28.4 °F - 24.8 °F 86% 30.20 in 7.0 mi Calm Calm - N/A   Overcast
7:56 PM 28.9 °F - 25.0 °F 85% 30.21 in 7.0 mi Calm Calm - N/A   Overcast
8:56 PM 28.9 °F - 25.0 °F 85% 30.21 in 6.0 mi Calm Calm - N/A   Overcast
9:56 PM 28.9 °F 25.2 °F 25.0 °F 85% 30.19 in 5.0 mi ESE 3.5 mph - N/A   Overcast
10:12 PM 28.4 °F - 26.6 °F 93% 30.18 in 3.0 mi Calm Calm - 0.00 in   Overcast
10:29 PM 28.4 °F 24.6 °F 26.6 °F 93% 30.17 in 2.5 mi SE 3.5 mph - 0.00 in Snow Light Snow
10:56 PM 28.9 °F - 27.0 °F 92% 30.19 in 2.5 mi Calm Calm - 0.00 in Snow Light Snow
11:29 PM 28.4 °F 22.2 °F 26.6 °F 93% 30.16 in 3.0 mi SSE 5.8 mph - 0.00 in   Overcast
11:56 PM 28.9 °F 22.8 °F 27.0 °F 92% 30.17 in 3.0 mi SSE 5.8 mph - 0.00 in Snow Light Snow